Simultaneous Nadir Overpasses (SNOs) Predictions

Prediction of SNOs between AQUA and METOP-A Satellite Orbit:

Table of predicted SNOs for the next 14.0 days since TLE Epoch: 4/20/2012
Index Date (AQUA) Time (AQUA) AQUA Lat,Lon Date (METOP-A) Time (METOP-A) METOP-A Lat,Lon Distance(km) Time Diff (sec)
1 04/20/2012 08:37:21 73.62, 45.34 04/20/2012 08:36:09 73.56, 44.59 24.54 72
2 04/20/2012 09:26:50 -73.80,-147.41 04/20/2012 09:26:45 -73.82,-147.46 3.16 5
3 04/20/2012 10:16:19 73.87, 20.06 04/20/2012 10:17:24 73.89, 20.03 1.92 65
4 04/23/2012 04:11:39 73.74, 111.52 04/23/2012 04:10:29 73.76, 111.46 2.58 70
5 04/23/2012 05:01:06 -73.81, -81.00 04/23/2012 05:01:09 -73.83, -81.05 2.15 3
6 04/23/2012 05:50:35 73.89, 86.46 04/23/2012 05:51:48 73.89, 86.43 1.34 73
7 04/25/2012 23:45:55 73.76, 177.93 04/25/2012 23:44:52 73.79, 177.94 3.61 63
8 04/26/2012 00:35:22 -73.82, -14.58 04/26/2012 00:35:33 -73.81, -14.69 3.64 11
9 04/26/2012 01:24:56 74.17, 152.28 04/26/2012 01:26:06 74.17, 153.52 37.45 70
10 04/28/2012 19:20:11 73.77,-115.66 04/28/2012 19:19:16 73.76,-115.74 2.82 55
11 04/28/2012 20:09:37 -73.83, 51.85 04/28/2012 20:09:55 -73.83, 51.77 2.48 18
12 04/28/2012 20:59:16 74.43,-141.91 04/28/2012 21:00:23 74.43,-139.41 74.69 67
13 05/01/2012 14:54:26 73.78, -49.23 05/01/2012 14:53:38 73.76, -49.33 3.53 48
14 05/01/2012 15:43:53 -73.83, 118.28 05/01/2012 15:44:18 -73.83, 118.18 2.96 25




NCC Satellite Simultaneous Nadir Overpasses (SNOs) Prediction Service
